Flag for United Kingdom Weather past 2 weeks in Stockport, England, United Kingdom

Now
45 °F

Passing clouds.


Feels Like: 42 °F
Forecast: 51 / 61 °F
Wind: 5 mph from South

Location: Manchester Airport

Current Time: Aug 20, 2014 at 6:20:51 AM

Latest Report: Aug 20, 2014 at 5:50 AM


Visibility: N/A

Pressure: 30.01 "Hg

Humidity: 93%

Dew point: 43 °F

Location of StockportLocation

Historic Weather in Stockport — Graph

°F

Stockport temperature yesterday

Maximum temperature yesterday: 61 °F (at 1:20 PM)
Minimum temperature yesterday: 45 °F (at 11:50 PM)
Average temperature yesterday: 53 °F

Past Weeks' High & Low Weather Summary

 TemperatureHumidityPressure
High72 °F (Aug 8, 12:50 PM)100% (Aug 7, 3:50 AM)30.15 "Hg (Aug 7, 3:50 AM)
Low45 °F (Aug 19, 11:50 PM)46% (Aug 7, 4:50 PM)29.27 "Hg (Aug 10, 2:20 PM)
Average59 °F79%29.78 "Hg
* Reported Aug 5 5:20 AM — Aug 20 5:20 AM, Stockport, Weather by CustomWeather, © 2014

Note: Actual official high and low records may vary slightly from our data, if they occured in-between our weather recording intervals... More about our weather records

Advertising

Stockport weather history for previous 24 hours

 ConditionsComfort  
Time TempWeatherWind HumidityBarometerVisibility
5:20 AM
Aug 20
45 °FPassing clouds.3 mph93%30.01 "HgN/A
4:50 AM45 °FPassing clouds.3 mph93%30.01 "HgN/A
4:20 AM46 °FPassing clouds.3 mph93%30.01 "HgN/A
3:50 AM45 °FPassing clouds.5 mph93%30.01 "HgN/A
3:20 AM45 °FPassing clouds.3 mph93%30.01 "HgN/A
2:50 AM45 °FPassing clouds.3 mph93%30.01 "HgN/A
2:20 AM46 °FPassing clouds.3 mph93%30.01 "HgN/A
1:50 AM45 °FPassing clouds.5 mph93%30.01 "HgN/A
1:20 AM46 °FPassing clouds.3 mph87%30.01 "HgN/A
12:50 AM45 °FPassing clouds.5 mph93%30.01 "HgN/A
12:20 AM45 °FPassing clouds.3 mph93%30.01 "HgN/A
11:50 PM
Aug 19
45 °FPassing clouds.2 mph93%30.01 "HgN/A
11:20 PM46 °FPassing clouds.2 mph87%30.01 "HgN/A
10:50 PM48 °FPassing clouds.3 mph87%30.01 "HgN/A
10:20 PM48 °FPassing clouds.3 mph87%30.01 "HgN/A
9:50 PM52 °FPassing clouds.3 mph77%30.01 "HgN/A
9:20 PM52 °FPassing clouds.3 mph77%29.98 "HgN/A
8:50 PM54 °FPassing clouds.3 mph72%29.98 "HgN/A
8:20 PM55 °FPassing clouds.5 mph67%29.98 "HgN/A
7:50 PM55 °FPassing clouds.9 mph67%29.98 "HgN/A
7:20 PM57 °FPassing clouds.10 mph63%29.98 "HgN/A
6:50 PM57 °FPassing clouds.13 mph59%29.95 "HgN/A
6:20 PM59 °FPassing clouds.14 mph55%29.95 "HgN/A
5:50 PM59 °FPassing clouds.10 mph55%29.95 "HgN/A
5:20 PM59 °FPassing clouds.13 mph55%29.95 "HgN/A
4:50 PM61 °FPassing clouds.14 mph48%29.95 "HgN/A
4:20 PM59 °FPassing clouds.13 mph55%29.95 "HgN/A
3:50 PM61 °FPassing clouds.12 mph55%29.92 "HgN/A
3:20 PM61 °FPassing clouds.13 mph55%29.92 "HgN/A
2:50 PM61 °FPassing clouds.13 mph55%29.92 "HgN/A
2:20 PM59 °FPassing clouds.12 mph59%29.92 "HgN/A
1:50 PM59 °FPassing clouds.13 mph55%29.92 "HgN/A
1:20 PM61 °FPassing clouds.10 mph59%29.92 "HgN/A
12:50 PM59 °FPassing clouds.12 mph63%29.92 "HgN/A
12:20 PM57 °FPassing clouds.10 mph63%29.92 "HgN/A
11:50 AM57 °FPassing clouds.9 mph72%29.89 "HgN/A
11:20 AM57 °FPassing clouds.7 mph72%29.89 "HgN/A
10:50 AM55 °FScattered clouds.10 mph77%29.89 "HgN/A
10:20 AM54 °FPassing clouds.8 mph82%29.89 "HgN/A
9:50 AM52 °FPassing clouds.6 mph88%29.89 "HgN/A
9:20 AM50 °FPassing clouds.8 mph94%29.89 "HgN/A
8:50 AM50 °FSprinkles. Passing clouds.7 mph88%29.89 "HgN/A
8:20 AM50 °FSprinkles. Passing clouds.7 mph88%29.86 "HgN/A
7:50 AM48 °FRain showers. Scattered clouds.3 mph94%29.86 "HgN/A
7:20 AM48 °FSprinkles. Scattered clouds.6 mph94%29.86 "HgN/A
6:50 AM46 °FSprinkles. Passing clouds.3 mph100%29.86 "HgN/A
6:20 AM46 °FPassing clouds.6 mph93%29.86 "HgN/A
Weather by CustomWeather, © 2014

See weather overviewHow to use our weather pages